TAIP52 YCBG-YCBG

Flight info

Callsign TAIP52
Flight time 0h 3m
Altitude 1000
Route YMLT
Aircraft EC35/L-SDFGRY/C

Departure

Time 2026-04-26 21:35
Airport Cambridge Aerodrome (YCBG)

Arrival

Time 2026-04-26 21:38
Airport Cambridge Aerodrome (YCBG)
Time Latitude Longitude Altitude Speed Heading
2026-04-26 21:24 -42.82871 147.47616 47 ft 0 kts 14°
2026-04-26 21:29 -42.82871 147.47621 48 ft 2 kts 17°
2026-04-26 21:30 -42.82871 147.47628 52 ft 1 kts 15°
2026-04-26 21:30 -42.82868 147.47636 52 ft 1 kts 314°
2026-04-26 21:30 -42.82876 147.47615 56 ft 3 kts 314°
2026-04-26 21:30 -42.82874 147.47604 59 ft 3 kts 315°
2026-04-26 21:31 -42.82855 147.47591 59 ft 2 kts 329°
2026-04-26 21:31 -42.82853 147.47587 58 ft 1 kts 10°
2026-04-26 21:31 -42.82852 147.47588 54 ft 0 kts 14°
2026-04-26 21:31 -42.82851 147.47588 48 ft 1 kts 10°
2026-04-26 21:32 -42.82845 147.47589 50 ft 1 kts
2026-04-26 21:32 -42.82829 147.47595 52 ft 3 kts 20°
2026-04-26 21:32 -42.82818 147.47614 54 ft 2 kts 111°
2026-04-26 21:32 -42.82822 147.47626 52 ft 1 kts 110°
2026-04-26 21:33 -42.82824 147.47632 50 ft 0 kts 113°
2026-04-26 21:33 -42.82823 147.47633 50 ft 0 kts 114°
2026-04-26 21:33 -42.82821 147.47633 49 ft 0 kts 112°
2026-04-26 21:33 -42.82821 147.47634 49 ft 0 kts 111°
2026-04-26 21:34 -42.82823 147.47635 51 ft 0 kts 108°
2026-04-26 21:34 -42.82832 147.47666 59 ft 10 kts 112°
2026-04-26 21:34 -42.82908 147.47943 207 ft 51 kts 102°
2026-04-26 21:35 -42.83044 147.48532 392 ft 76 kts 104°
2026-04-26 21:35 -42.83253 147.49212 616 ft 79 kts 126°
2026-04-26 21:35 -42.83753 147.49471 814 ft 79 kts 192°
2026-04-26 21:35 -42.84141 147.49033 1058 ft 72 kts 249°
2026-04-26 21:36 -42.84105 147.48364 1242 ft 80 kts 289°
2026-04-26 21:36 -42.83900 147.47547 1200 ft 101 kts 283°
2026-04-26 21:36 -42.83749 147.46639 1400 ft 86 kts 277°
2026-04-26 21:36 -42.83681 147.45855 1504 ft 81 kts 281°
2026-04-26 21:37 -42.83570 147.45122 1455 ft 80 kts 279°
2026-04-26 21:37 -42.83343 147.44462 1287 ft 80 kts 319°
2026-04-26 21:37 -42.82824 147.44397 1143 ft 79 kts 25°
2026-04-26 21:37 -42.82582 147.45006 1011 ft 75 kts 82°
2026-04-26 21:38 -42.82604 147.45683 854 ft 67 kts 89°
2026-04-26 21:38 -42.82644 147.46279 631 ft 58 kts 89°
2026-04-26 21:38 -42.82677 147.46777 414 ft 47 kts 96°
2026-04-26 21:38 -42.82729 147.47159 274 ft 35 kts 102°
2026-04-26 21:39 -42.82791 147.47424 158 ft 23 kts 99°
2026-04-26 21:39 -42.82814 147.47575 83 ft 10 kts 111°
2026-04-26 21:39 -42.82822 147.47620 60 ft 1 kts 104°
2026-04-26 21:39 -42.82820 147.47626 56 ft 0 kts 108°
2026-04-26 21:40 -42.82822 147.47630 53 ft 0 kts 109°
2026-04-26 21:40 -42.82824 147.47632 50 ft 1 kts 106°
2026-04-26 21:40 -42.82830 147.47651 51 ft 9 kts 102°
2026-04-26 21:40 -42.82904 147.47955 199 ft 60 kts 104°
2026-04-26 21:41 -42.83064 147.48624 398 ft 78 kts 105°
2026-04-26 21:41 -42.83413 147.49156 619 ft 78 kts 163°
2026-04-26 21:41 -42.83886 147.48956 835 ft 73 kts 235°
2026-04-26 21:41 -42.83942 147.48325 1079 ft 65 kts 282°
2026-04-26 21:42 -42.83816 147.47714 1257 ft 74 kts 288°
2026-04-26 21:42 -42.83654 147.46975 1296 ft 87 kts 284°
2026-04-26 21:42 -42.83493 147.46137 1308 ft 95 kts 284°
2026-04-26 21:42 -42.83303 147.45271 1401 ft 92 kts 284°
2026-04-26 21:43 -42.83162 147.44429 1361 ft 88 kts 286°
2026-04-26 21:43 -42.82822 147.43770 1183 ft 85 kts 321°
2026-04-26 21:43 -42.82263 147.43557 1017 ft 85 kts
2026-04-26 21:43 -42.81816 147.44042 929 ft 89 kts 64°
2026-04-26 21:44 -42.81869 147.44791 905 ft 76 kts 117°
2026-04-26 21:44 -42.82140 147.45352 755 ft 66 kts 122°
2026-04-26 21:44 -42.82395 147.45817 651 ft 56 kts 116°
2026-04-26 21:44 -42.82561 147.46240 528 ft 47 kts 105°
2026-04-26 21:45 -42.82632 147.46597 399 ft 33 kts 99°
2026-04-26 21:45 -42.82674 147.46858 300 ft 24 kts 103°
2026-04-26 21:45 -42.82723 147.47054 255 ft 20 kts 104°
2026-04-26 21:45 -42.82754 147.47239 202 ft 20 kts 107°
2026-04-26 21:46 -42.82784 147.47412 125 ft 15 kts 109°
2026-04-26 21:46 -42.82799 147.47509 63 ft 5 kts 111°
2026-04-26 21:46 -42.82801 147.47520 53 ft 1 kts 106°
2026-04-26 21:46 -42.82800 147.47517 49 ft 1 kts 107°
2026-04-26 21:47 -42.82801 147.47515 49 ft 0 kts 111°
2026-04-26 21:47 -42.82804 147.47515 52 ft 2 kts 109°
2026-04-26 21:47 -42.82811 147.47513 50 ft 0 kts 106°
2026-04-26 21:47 -42.82808 147.47514 49 ft 1 kts 105°
2026-04-26 21:48 -42.82807 147.47513 49 ft 1 kts 103°
2026-04-26 21:48 -42.82805 147.47512 48 ft 2 kts 103°
2026-04-26 21:48 -42.82802 147.47528 47 ft 2 kts 109°
2026-04-26 21:48 -42.82803 147.47538 48 ft 1 kts 110°
2026-04-26 21:49 -42.82811 147.47538 53 ft 0 kts 109°
2026-04-26 21:49 -42.82809 147.47536 53 ft 0 kts 107°
2026-04-26 21:49 -42.82807 147.47538 53 ft 0 kts 108°
2026-04-26 21:49 -42.82806 147.47538 48 ft 1 kts 109°
2026-04-26 21:50 -42.82808 147.47540 53 ft 1 kts 107°
2026-04-26 21:50 -42.82808 147.47547 48 ft 1 kts 109°
2026-04-26 21:50 -42.82808 147.47569 52 ft 1 kts 111°
2026-04-26 21:50 -42.82812 147.47573 53 ft 1 kts 108°
2026-04-26 21:51 -42.82813 147.47570 47 ft 0 kts 106°
2026-04-26 21:51 -42.82818 147.47588 51 ft 9 kts 108°
2026-04-26 21:51 -42.82901 147.47964 171 ft 70 kts 101°
2026-04-26 21:51 -42.83099 147.48646 437 ft 81 kts 124°
2026-04-26 21:52 -42.83598 147.48950 676 ft 80 kts 186°
2026-04-26 21:52 -42.84017 147.48575 957 ft 72 kts 244°
2026-04-26 21:52 -42.84020 147.47884 1127 ft 84 kts 282°
2026-04-26 21:52 -42.83823 147.47023 1116 ft 103 kts 286°
2026-04-26 21:53 -42.83575 147.46083 1127 ft 108 kts 287°
2026-04-26 21:53 -42.83341 147.45115 1172 ft 106 kts 287°
2026-04-26 21:53 -42.83093 147.44213 1175 ft 95 kts 289°
2026-04-26 21:53 -42.82723 147.43612 1088 ft 78 kts 332°
2026-04-26 21:54 -42.82254 147.43724 984 ft 71 kts 38°
2026-04-26 21:54 -42.82199 147.44360 871 ft 72 kts 103°
2026-04-26 21:54 -42.82359 147.44996 824 ft 69 kts 100°
2026-04-26 21:54 -42.82487 147.45614 710 ft 66 kts 99°
2026-04-26 21:55 -42.82584 147.46192 569 ft 59 kts 96°
2026-04-26 21:55 -42.82672 147.46691 402 ft 49 kts 92°
2026-04-26 21:55 -42.82733 147.47080 240 ft 35 kts 97°
2026-04-26 21:55 -42.82775 147.47363 142 ft 25 kts 105°
2026-04-26 21:56 -42.82798 147.47518 54 ft 6 kts 108°
2026-04-26 21:56 -42.82804 147.47533 50 ft 2 kts 102°
2026-04-26 21:56 -42.82805 147.47538 48 ft 1 kts 112°
2026-04-26 21:56 -42.82811 147.47541 49 ft 1 kts 116°
2026-04-26 21:57 -42.82805 147.47544 48 ft 2 kts 115°
2026-04-26 21:57 -42.82809 147.47557 51 ft 6 kts 107°
2026-04-26 21:57 -42.82882 147.47838 125 ft 66 kts 102°
2026-04-26 21:57 -42.83056 147.48578 310 ft 88 kts 108°
2026-04-26 21:58 -42.83576 147.48997 489 ft 94 kts 181°
2026-04-26 21:58 -42.84086 147.48532 634 ft 92 kts 245°
2026-04-26 21:58 -42.84033 147.47662 703 ft 99 kts 285°
2026-04-26 21:58 -42.83799 147.46752 677 ft 103 kts 293°
2026-04-26 21:59 -42.83524 147.45847 677 ft 103 kts 289°
2026-04-26 21:59 -42.83218 147.44985 660 ft 101 kts 307°
2026-04-26 21:59 -42.82606 147.44763 686 ft 92 kts 12°
2026-04-26 21:59 -42.82313 147.45404 683 ft 80 kts 96°
2026-04-26 22:00 -42.82516 147.46090 569 ft 73 kts 107°
2026-04-26 22:00 -42.82656 147.46676 414 ft 57 kts 98°
2026-04-26 22:00 -42.82713 147.47065 320 ft 30 kts 102°
2026-04-26 22:00 -42.82754 147.47256 202 ft 15 kts 106°
2026-04-26 22:01 -42.82769 147.47362 124 ft 10 kts 107°
2026-04-26 22:01 -42.82797 147.47460 66 ft 12 kts 104°
2026-04-26 22:01 -42.82807 147.47532 59 ft 5 kts 104°
2026-04-26 22:01 -42.82813 147.47565 56 ft 2 kts 104°
2026-04-26 22:02 -42.82813 147.47575 50 ft 1 kts 108°
2026-04-26 22:02 -42.82815 147.47578 48 ft 0 kts 113°
2026-04-26 22:02 -42.82814 147.47579 47 ft 1 kts 106°
2026-04-26 22:02 -42.82820 147.47599 49 ft 9 kts 106°
2026-04-26 22:03 -42.82922 147.48011 129 ft 71 kts 98°
2026-04-26 22:03 -42.83083 147.48748 316 ft 87 kts 103°
2026-04-26 22:03 -42.83473 147.49376 496 ft 93 kts 156°
2026-04-26 22:03 -42.84026 147.49145 636 ft 89 kts 240°
2026-04-26 22:04 -42.83999 147.48300 658 ft 97 kts 284°
2026-04-26 22:04 -42.83841 147.47383 726 ft 101 kts 282°
2026-04-26 22:04 -42.83642 147.46422 704 ft 108 kts 284°
2026-04-26 22:04 -42.83387 147.45446 689 ft 107 kts 287°
2026-04-26 22:05 -42.83039 147.44663 691 ft 92 kts 324°
2026-04-26 22:05 -42.82491 147.44727 711 ft 77 kts 35°
2026-04-26 22:05 -42.82419 147.45363 665 ft 68 kts 95°
2026-04-26 22:05 -42.82531 147.45964 567 ft 62 kts 100°
2026-04-26 22:06 -42.82635 147.46523 418 ft 61 kts 95°
2026-04-26 22:06 -42.82727 147.47040 291 ft 50 kts 98°
2026-04-26 22:06 -42.82790 147.47411 163 ft 30 kts 96°
2026-04-26 22:06 -42.82816 147.47589 66 ft 9 kts 104°
2026-04-26 22:07 -42.82818 147.47616 55 ft 1 kts 109°
2026-04-26 22:07 -42.82834 147.47649 53 ft 9 kts 104°
2026-04-26 22:07 -42.82883 147.47661 75 ft 7 kts 227°
2026-04-26 22:07 -42.82873 147.47615 68 ft 9 kts 270°
2026-04-26 22:08 -42.82914 147.47561 54 ft 5 kts 156°
2026-04-26 22:08 -42.82940 147.47597 59 ft 5 kts 79°
2026-04-26 22:08 -42.82941 147.47636 54 ft 5 kts 41°
2026-04-26 22:08 -42.82924 147.47658 53 ft 2 kts 15°
2026-04-26 22:09 -42.82922 147.47664 51 ft 1 kts 15°
2026-04-26 22:09 -42.82922 147.47665 49 ft 0 kts 12°